This demonstration page uses our WeatherBlox Daily Observations layout. Learn more.

Hourly Observations for February 14, 2017

Temp ( °F °C ) Dew Point ( °F °C ) Humidity (%) Winds ( mph kmh ) Pressure ( in mb ) Visibility ( mi km ) Precip ( " mm )
12:15 am 00:15 Clear 34 1.1 23 -4.8 65 65 N 6 9 30.21 1023 10 16.0934 0 0
12:35 am 00:35 Clear 32 0.1 23 -4.8 70 70 N 6 9 30.24 1024 10 16.0934 0 0
12:55 am 00:55 Clear 32 0.1 23 -4.8 70 70 NNW 5 7 30.24 1024 10 16.0934 0 0
1:15 am 01:15 Clear 31 -0.5 22 -5.4 70 70 NNW 6 9 30.24 1024 10 16.0934 0 0
1:35 am 01:35 Clear 29 -1.7 22 -5.4 76 76 NW 8 13 30.24 1024 10 16.0934 0 0
1:55 am 01:55 Clear 32 0 24 -4.6 71 71 NNW 10 17 30.24 1024 10 16.0934 0 0
2:15 am 02:15 Clear 32 0 23 -5 69 69 NNW 10 17 30.24 1024 10 16.0934 0 0
2:35 am 02:35 Clear 31 -0.6 23 -5.1 72 72 NNW 9 15 30.24 1024 10 16.0934 0 0
2:55 am 02:55 Clear 30 -0.9 23 -5 74 74 NNW 10 17 30.24 1024 10 16.0934 0 0
3:15 am 03:15 Clear 31 -0.5 24 -4.7 74 74 NNW 14 22 30.24 1024 10 16.0934 0 0
3:35 am 03:35 Clear 30 -1 23 -5 75 75 NNW 12 19 30.24 1024 10 16.0934 0 0
3:55 am 03:55 Clear 29 -1.5 23 -5.1 77 77 NNW 9 15 30.24 1024 10 16.0934 0 0
4:15 am 04:15 Clear 29 -1.6 23 -5 78 78 NNW 10 17 30.24 1024 10 16.0934 0 0
4:35 am 04:35 Clear 28 -2 23 -5.1 80 80 NNW 6 9 30.24 1024 10 16.0934 0 0
4:55 am 04:55 Clear 27 -2.6 22 -5.4 81 81 NW 7 11 30.27 1025 10 16.0934 0 0
5:15 am 05:15 Clear 29 -1.9 23 -4.9 80 80 NNW 12 19 30.24 1024 10 16.0934 0 0
5:35 am 05:35 Clear 29 -1.6 24 -4.7 80 80 NNW 10 17 30.24 1024 10 16.0934 0 0
5:55 am 05:55 Clear 29 -1.6 24 -4.7 80 80 NNW 9 15 30.24 1024 10 16.0934 0 0
6:15 am 06:15 Clear 29 -1.8 24 -4.7 81 81 NNW 8 13 30.24 1024 10 16.0934 0 0
6:35 am 06:35 Clear 28 -2 23 -4.8 81 81 NW 7 11 30.24 1024 10 16.0934 0 0
6:55 am 06:55 Clear 28 -2.3 23 -4.8 83 83 NW 6 9 30.24 1024 10 16.0934 0 0
7:15 am 07:15 Clear 28 -2 24 -4.6 83 83 NNW 6 9 30.24 1024 10 16.0934 0 0
7:35 am 07:35 Sunny 29 -1.9 24 -4.6 82 82 NNW 8 13 30.24 1024 10 16.0934 0 0
7:55 am 07:55 Sunny 29 -1.8 24 -4.7 81 81 NNW 7 11 30.24 1024 10 16.0934 0 0
8:15 am 08:15 Sunny 29 -1.5 24 -4.5 80 80 NW 7 11 30.27 1025 10 16.0934 0 0
8:35 am 08:35 Sunny 30 -1.1 25 -4 81 81 WNW 5 7 30.27 1025 10 16.0934 0 0
8:55 am 08:55 Sunny 32 -0.2 26 -3.4 79 79 NW 8 13 30.27 1025 10 16.0934 0 0
9:15 am 09:15 Sunny 33 0.3 26 -3.2 78 78 NW 9 15 30.27 1025 10 16.0934 0 0
9:35 am 09:35 Sunny 34 1.1 26 -3.3 73 73 NW 8 13 30.21 1023 10 16.0934 0 0
9:55 am 09:55 Sunny 35 1.7 27 -3 71 71 NW 10 17 30.21 1023 10 16.0934 0 0
10:15 am 10:15 Sunny 36 2.1 27 -3 69 69 NW 9 15 30.21 1023 10 16.0934 0 0
10:35 am 10:35 Sunny 37 3 27 -2.8 66 66 NNW 9 15 30.21 1023 10 16.0934 0 0
10:55 am 10:55 Sunny 38 3.6 27 -2.9 63 63 NW 15 24 30.21 1023 10 16.0934 0 0
11:15 am 11:15 Sunny 40 4.4 27 -2.8 60 60 NW 14 22 30.18 1022 10 16.0934 0 0
11:35 am 11:35 Sunny 42 5.7 28 -2.5 56 56 NW 12 19 30.18 1022 10 16.0934 0 0
11:55 am 11:55 Sunny 44 6.8 27 -2.7 51 51 NNW 14 22 30.18 1022 10 16.0934 0 0
12:15 pm 12:15 Sunny 46 7.6 26 -3.3 46 46 NW 13 20 30.15 1021 10 16.0934 0 0
12:35 pm 12:35 Sunny 48 8.7 26 -3.4 43 43 NNW 15 24 30.15 1021 10 16.0934 0 0
12:55 pm 12:55 Sunny 49 9.3 23 -4.8 37 37 N 18 30 30.15 1021 10 16.0934 0 0
1:15 pm 13:15 Sunny 49 9.6 23 -4.9 36 36 N 20 31 30.15 1021 10 16.0934 0 0
1:35 pm 13:35 Sunny 50 10 24 -4.7 35 35 N 15 24 30.12 1020 10 16.0934 0 0
1:55 pm 13:55 Sunny 50 10 24 -4.6 36 36 NNW 13 20 30.12 1020 10 16.0934 0 0
2:15 pm 14:15 Sunny 52 10.9 23 -4.8 33 33 N 17 28 30.06 1018 10 16.0934 0 0
2:35 pm 14:35 Sunny 51 10.7 23 -5.1 33 33 N 16 26 30.06 1018 10 16.0934 0 0
2:55 pm 14:55 Sunny 51 10.5 23 -4.9 34 34 N 20 31 30.06 1018 10 16.0934 0 0
3:15 pm 15:15 Sunny 52 11.2 23 -4.9 32 32 N 17 28 30.06 1018 10 16.0934 0 0
3:35 pm 15:35 Sunny 51 10.8 22 -5.5 32 32 N 15 24 30.06 1018 10 16.0934 0 0
3:55 pm 15:55 Sunny 51 10.4 22 -5.8 32 32 N 18 30 30.06 1018 10 16.0934 0 0
4:15 pm 16:15 Sunny 51 10.5 22 -5.8 32 32 N 16 26 30.06 1018 10 16.0934 0 0
4:35 pm 16:35 Sunny 50 10.2 21 -6.1 31 31 N 17 28 30.09 1019 10 16.0934 0 0
4:55 pm 16:55 Sunny 50 9.9 20 -6.4 31 31 N 17 28 30.12 1020 10 16.0934 0 0
5:15 pm 17:15 Sunny 48 9.1 20 -6.8 32 32 N 16 26 30.12 1020 10 16.0934 0 0
5:35 pm 17:35 Sunny 47 8.3 21 -6.1 36 36 N 15 24 30.12 1020 10 16.0934 0 0
5:55 pm 17:55 Sunny 45 7.1 21 -6.3 38 38 N 12 19 30.15 1021 10 16.0934 0 0
6:15 pm 18:15 Clear 42 5.7 21 -6 43 43 N 12 19 30.18 1022 10 16.0934 0 0
6:35 pm 18:35 Clear 40 4.7 21 -5.9 47 47 N 9 15 30.18 1022 10 16.0934 0 0
6:55 pm 18:55 Clear 37 2.6 21 -6 53 53 N 9 15 30.21 1023 10 16.0934 0 0
7:15 pm 19:15 Clear 37 2.5 22 -5.8 55 55 N 9 15 30.21 1023 10 16.0934 0 0
7:35 pm 19:35 Clear 34 1.1 21 -5.9 60 60 N 8 13 30.21 1023 10 16.0934 0 0
7:55 pm 19:55 Clear 35 1.6 22 -5.7 59 59 N 9 15 30.21 1023 10 16.0934 0 0
8:15 pm 20:15 Clear 36 2.1 22 -5.7 57 57 N 7 11 30.21 1023 10 16.0934 0 0
8:35 pm 20:35 Clear 34 0.9 22 -5.6 62 62 N 6 9 30.21 1023 10 16.0934 0 0
8:55 pm 20:55 Clear 33 0.5 21 -6 62 62 NNW 8 13 30.24 1024 10 16.0934 0 0
9:15 pm 21:15 Clear 32 0.1 21 -6 64 64 NNW 9 15 30.24 1024 10 16.0934 0 0
9:35 pm 21:35 Clear 32 0.1 21 -6 64 64 NNW 8 13 30.24 1024 10 16.0934 0 0
9:55 pm 21:55 Clear 31 -0.3 21 -6.1 65 65 NNW 8 13 30.24 1024 10 16.0934 0 0
10:15 pm 22:15 Clear 31 -0.5 21 -6.1 66 66 NW 8 13 30.24 1024 10 16.0934 0 0
10:35 pm 22:35 Clear 28 -2.3 21 -6.3 74 74 NW 8 13 30.24 1024 10 16.0934 0 0
10:55 pm 22:55 Clear 28 -2.5 21 -6.2 76 76 NW 7 11 30.27 1025 10 16.0934 0 0
11:15 pm 23:15 Clear 28 -2.5 20 -6.4 75 75 WNW 7 11 30.27 1025 10 16.0934 0 0
11:35 pm 23:35 Clear 28 -2.1 21 -6.2 74 74 WNW 7 11 30.24 1024 10 16.0934 0 0
11:55 pm 23:55 Clear 28 -2.3 21 -6.1 75 75 NW 7 11 30.24 1024 10 16.0934 0 0

Powered by AerisWeather